KC3ROS Weather Reports


Display with metric or nautical units.
time (UTC)temp
F
wind
direction
speed
MPH
gust
MPH
rain 1hr
in
rain 24hr
in
rain mn
in
humidity
%
barometer
mb
20260831052154 68 104 0.0 1.0 0.00 0.00 0.00 93 1020.2
20260831051652 68 67 0.0 1.0 0.00 0.00 0.00 92 1020.1
20260831051151 68 117 0.0 1.0 0.00 0.00 0.00 92 1020.3
20260831050646 68 7 0.0 0.0 0.00 0.00 0.00 91 1020.2
20260831050145 68 0 0.0 1.0 0.00 0.00 0.00 91 1020.2
20260831045645 68 50 0.0 1.0 0.00 0.00 0.00 92 1020.2
20260831045139 68 104 0.0 0.0 0.00 0.00 0.00 91 1020.1
20260831044634 68 75 0.0 0.0 0.00 0.00 0.00 91 1020.2
20260831044129 68 75 0.0 0.0 0.00 0.00 0.00 91 1020.2
20260831043625 68 129 0.0 1.0 0.00 0.00 0.00 91 1020.0
20260831043121 68 116 0.0 1.0 0.00 0.00 0.00 91 1020.2
20260831042620 68 117 0.0 0.0 0.00 0.00 0.00 91 1020.1
20260831042115 68 113 0.0 2.0 0.00 0.00 0.00 91 1020.1
20260831041610 69 150 0.0 0.0 0.00 0.00 0.00 91 1020.3
20260831041109 69 50 0.0 0.0 0.00 0.00 0.00 90 1020.4
20260831040604 69 50 0.0 0.0 0.00 0.00 0.00 90 1020.4
20260831040057 69 100 1.0 1.0 0.00 0.00 0.00 90 1020.3
20260831035549 69 73 1.0 1.0 0.00 0.00 0.00 90 1020.2
20260831035045 69 45 0.0 3.0 0.00 0.00 0.00 90 1020.2
20260831034544 69 86 2.0 3.0 0.00 0.00 0.00 91 1020.2
20260831034040 69 92 2.0 3.0 0.00 0.00 0.00 92 1020.3
20260831033535 69 101 2.0 3.0 0.00 0.00 0.00 92 1020.3
20260831033031 69 103 2.0 2.0 0.00 0.00 0.00 92 1020.4
20260831032530 69 84 1.0 2.0 0.00 0.00 0.00 92 1020.7
20260831032025 69 89 1.0 3.0 0.00 0.00 0.00 92 1020.7
20260831031519 70 44 0.0 1.0 0.00 0.00 0.00 92 1020.9
20260831031018 70 93 3.0 3.0 0.00 0.00 0.00 92 1020.7
20260831030518 70 81 0.0 2.0 0.00 0.00 0.00 92 1021.0
20260831030018 70 29 1.0 3.0 0.00 0.00 0.00 92 1021.2
20260831025515 70 8 2.0 2.0 0.00 0.00 0.00 92 1021.3
20260831025011 70 72 1.0 2.0 0.00 0.00 0.00 91 1021.1
20260831024507 70 37 1.0 2.0 0.00 0.00 0.00 91 1021.3
20260831024001 71 33 2.0 2.0 0.00 0.00 0.00 91 1021.5
20260831023458 71 16 1.0 3.0 0.00 0.00 0.00 91 1021.4
20260831022953 71 9 2.0 3.0 0.00 0.00 0.00 90 1021.6
20260831022452 71 5 2.0 3.0 0.00 0.00 0.00 90 1021.7
20260831021948 71 352 2.0 4.0 0.00 0.00 0.00 90 1021.4
20260831021446 71 4 2.0 3.0 0.00 0.00 0.00 90 1021.6
20260831020943 71 8 2.0 3.0 0.00 0.00 0.00 90 1021.6
20260831020443 71 14 2.0 3.0 0.00 0.00 0.00 90 1021.4
20260831015937 71 11 2.0 3.0 0.00 0.00 0.00 90 1021.3
20260831015433 71 345 2.0 3.0 0.00 0.00 0.00 89 1021.4
20260831014928 71 8 2.0 2.0 0.00 0.00 0.00 88 1020.9
20260831014423 72 21 1.0 2.0 0.00 0.00 0.00 87 1021.0
20260831013919 72 81 0.0 1.0 0.00 0.00 0.00 87 1021.1
20260831013414 72 7 2.0 2.0 0.00 0.00 0.00 87 1020.9
20260831012909 72 13 2.0 2.0 0.00 0.00 0.00 87 1020.6
20260831012403 72 17 2.0 2.0 0.00 0.00 0.00 87 1020.8
20260831011858 71 6 2.0 2.0 0.00 0.00 0.00 88 1020.6
20260831011352 71 354 2.0 2.0 0.00 0.00 0.00 88 1020.5
20260831010849 71 8 0.0 2.0 0.00 0.00 0.00 88 1020.2
20260831010348 71 18 2.0 3.0 0.00 0.00 0.00 88 1020.3
20260831005844 71 23 0.0 1.0 0.00 0.00 0.00 88 1019.9
20260831005339 71 89 0.0 1.0 0.00 0.00 0.00 87 1019.6
20260831004834 71 89 0.0 1.0 0.00 0.00 0.00 87 1019.6
20260831004330 71 81 0.0 2.0 0.00 0.00 0.00 87 1019.6
20260831003825 72 89 0.0 1.0 0.00 0.00 0.00 87 1019.6
20260831003321 72 109 0.0 1.0 0.00 0.00 0.00 87 1019.5
20260831002815 72 50 0.0 2.0 0.00 0.00 0.00 87 1019.6
20260831002309 72 75 0.0 2.0 0.00 0.00 0.00 87 1019.3
20260831001805 72 104 0.0 1.0 0.00 0.00 0.00 86 1019.0
20260831001259 72 106 1.0 2.0 0.00 0.00 0.00 86 1019.1
20260831000757 72 129 0.0 2.0 0.00 0.00 0.00 86 1019.2
20260831000257 72 93 1.0 2.0 0.00 0.00 0.00 85 1019.3
20260830235755 72 49 0.0 2.0 0.00 0.00 0.00 85 1019.3
20260830235250 72 48 0.0 1.0 0.00 0.00 0.00 85 1019.3
20260830234745 73 62 0.0 1.0 0.00 0.00 0.00 84 1019.1
20260830234241 73 62 0.0 1.0 0.00 0.00 0.00 84 1019.1
20260830233737 73 106 2.0 3.0 0.00 0.00 0.00 84 1018.9
20260830233232 73 76 0.0 1.0 0.00 0.00 0.00 84 1019.1
20260830232727 73 72 0.0 1.0 0.00 0.00 0.00 83 1019.2
20260830232223 74 62 0.0 0.0 0.00 0.00 0.00 83 1019.1
20260830231720 74 50 0.0 0.0 0.00 0.00 0.00 82 1019.1
20260830231219 74 76 0.0 0.0 0.00 0.00 0.00 82 1019.2
20260830230714 74 25 0.0 2.0 0.00 0.00 0.00 82 1019.2
20260830230209 74 9 0.0 2.0 0.00 0.00 0.00 82 1019.3
20260830225703 74 44 0.0 2.0 0.00 0.00 0.00 81 1019.1
20260830225158 74 50 0.0 2.0 0.00 0.00 0.00 81 1019.2
20260830224657 75 48 0.0 1.0 0.00 0.00 0.00 80 1019.1
20260830224153 75 89 0.0 1.0 0.00 0.00 0.00 79 1019.1
20260830223649 75 60 0.0 2.0 0.00 0.00 0.00 78 1019.2
20260830223144 75 62 0.0 1.0 0.00 0.00 0.00 78 1019.3
20260830222638 75 37 0.0 0.0 0.00 0.00 0.00 78 1019.2
20260830222134 75 19 0.0 1.0 0.00 0.00 0.00 77 1019.0
20260830221629 75 355 0.0 1.0 0.00 0.00 0.00 76 1019.1
20260830221120 76 7 0.0 1.0 0.00 0.00 0.00 75 1019.1
20260830220615 76 336 0.0 1.0 0.00 0.00 0.00 75 1019.2
20260830220108 76 326 0.0 1.0 0.00 0.00 0.00 74 1019.0
20260830215608 76 351 0.0 1.0 0.00 0.00 0.00 74 1019.1
20260830215102 76 55 0.0 0.0 0.00 0.00 0.00 75 1019.1
20260830214557 76 333 0.0 1.0 0.00 0.00 0.00 74 1019.1
20260830214051 76 339 0.0 2.0 0.00 0.00 0.00 74 1019.2
20260830213546 76 337 2.0 2.0 0.00 0.00 0.00 74 1019.0
20260830213041 77 4 2.0 2.0 0.00 0.00 0.00 72 1019.1
20260830212537 77 7 2.0 2.0 0.00 0.00 0.00 72 1018.9
20260830212032 76 0 2.0 3.0 0.00 0.00 0.00 72 1019.2
20260830211527 76 344 2.0 3.0 0.00 0.00 0.00 73 1019.1
20260830211026 76 2 1.0 2.0 0.00 0.00 0.00 72 1019.2
20260830210521 76 336 1.0 2.0 0.00 0.00 0.00 72 1019.2
20260830210021 76 350 2.0 3.0 0.00 0.00 0.00 71 1019.4
20260830205518 77 359 1.0 2.0 0.00 0.00 0.00 72 1019.4
20260830205014 77 324 2.0 3.0 0.00 0.00 0.00 73 1019.3
20260830204513 77 332 2.0 2.0 0.00 0.00 0.00 74 1019.6
20260830204013 77 345 2.0 2.0 0.00 0.00 0.00 72 1019.4
20260830203509 77 6 0.0 2.0 0.00 0.00 0.00 73 1019.3
20260830203004 77 338 2.0 4.0 0.00 0.00 0.00 71 1019.6
20260830202458 77 337 2.0 3.0 0.00 0.00 0.00 74 1019.7
20260830201954 77 8 2.0 3.0 0.00 0.00 0.00 73 1019.4
20260830201453 76 344 2.0 3.0 0.00 0.00 0.00 74 1019.6
20260830200948 76 350 2.0 3.0 0.00 0.00 0.00 74 1019.6
20260830200442 77 357 2.0 3.0 0.00 0.00 0.00 76 1019.7
20260830195937 77 347 1.0 2.0 0.00 0.00 0.00 75 1020.0
20260830195432 77 326 2.0 2.0 0.00 0.00 0.00 74 1019.7
20260830194930 77 355 2.0 3.0 0.00 0.00 0.00 74 1019.9
20260830194425 77 339 4.0 6.0 0.00 0.00 0.00 76 1019.9
20260830193924 77 343 2.0 3.0 0.00 0.00 0.00 76 1020.2
20260830193423 77 13 2.0 3.0 0.00 0.00 0.00 76 1020.0
20260830192919 77 347 2.0 4.0 0.00 0.00 0.00 75 1020.2
20260830192414 77 344 4.0 6.0 0.00 0.00 0.00 75 1020.1
20260830191914 77 349 2.0 5.0 0.00 0.00 0.00 75 1020.2
20260830191409 77 344 4.0 8.0 0.00 0.00 0.00 75 1020.2
20260830190905 77 346 3.0 6.0 0.00 0.00 0.00 76 1020.2
20260830190400 78 338 4.0 6.0 0.00 0.00 0.00 75 1020.3
20260830185859 79 351 4.0 5.0 0.00 0.00 0.00 73 1020.0
20260830185354 80 339 3.0 4.0 0.00 0.00 0.00 70 1020.1
20260830184849 78 327 1.0 2.0 0.00 0.00 0.00 70 1020.2
20260830184348 79 320 1.0 2.0 0.00 0.00 0.00 69 1020.4
20260830183842 79 327 1.0 3.0 0.00 0.00 0.00 71 1020.5
20260830183336 79 323 1.0 2.0 0.00 0.00 0.00 71 1020.5
20260830182832 78 335 0.0 3.0 0.00 0.00 0.00 70 1020.4
20260830182328 78 317 1.0 3.0 0.00 0.00 0.00 70 1020.5
20260830181824 78 334 3.0 4.0 0.00 0.00 0.00 70 1020.5
20260830181319 78 347 2.0 3.0 0.00 0.00 0.00 70 1020.6
20260830180818 79 332 2.0 4.0 0.00 0.00 0.00 70 1020.6
20260830180313 79 325 0.0 3.0 0.00 0.00 0.00 69 1020.6
20260830175808 80 302 1.0 3.0 0.00 0.00 0.00 69 1020.7
20260830175308 81 345 2.0 7.0 0.00 0.00 0.00 66 1020.7
20260830174803 82 347 1.0 3.0 0.00 0.00 0.00 64 1020.7
20260830174258 81 334 4.0 5.0 0.00 0.00 0.00 64 1020.6
20260830173757 82 326 2.0 4.0 0.00 0.00 0.00 65 1021.0
20260830173253 82 351 1.0 3.0 0.00 0.00 0.00 65 1021.1
20260830172749 81 280 4.0 6.0 0.00 0.00 0.00 65 1021.0
20260830172246 81 245 3.0 7.0 0.00 0.00 0.00 65 1021.3
20260830171741 81 252 3.0 4.0 0.00 0.00 0.00 67 1021.0
20260830171236 80 285 3.0 4.0 0.00 0.00 0.00 66 1021.1
20260830170731 81 264 7.0 9.0 0.00 0.00 0.00 65 1021.2
20260830170231 80 258 3.0 7.0 0.00 0.00 0.00 66 1021.3
20260830165730 81 230 0.0 4.0 0.00 0.00 0.00 68 1021.3
20260830165226 81 297 0.0 5.0 0.00 0.00 0.00 69 1021.2
20260830164722 80 227 0.0 3.0 0.00 0.00 0.00 69 1021.2
20260830164217 80 247 4.0 6.0 0.00 0.00 0.00 71 1021.1
20260830163714 80 17 1.0 5.0 0.00 0.00 0.00 71 1021.1
20260830163209 80 250 2.0 6.0 0.00 0.00 0.00 72 1021.1
20260830162704 80 261 4.0 6.0 0.00 0.00 0.00 72 1021.3
20260830162200 80 333 0.0 5.0 0.00 0.00 0.00 72 1021.3
20260830161655 81 248 1.0 8.0 0.00 0.00 0.00 72 1021.1
20260830161149 80 226 2.0 6.0 0.00 0.00 0.00 72 1021.4
20260830160645 79 252 1.0 5.0 0.00 0.00 0.00 75 1021.4
20260830160139 79 245 1.0 5.0 0.00 0.00 0.00 74 1021.3
20260830155636 79 295 1.0 4.0 0.00 0.00 0.00 72 1021.3
20260830155132 79 248 4.0 5.0 0.00 0.00 0.00 74 1021.3
20260830154626 80 265 3.0 4.0 0.00 0.00 0.00 75 1021.5
20260830154123 79 217 0.0 4.0 0.00 0.00 0.00 76 1021.4
20260830153619 78 226 1.0 2.0 0.00 0.00 0.00 79 1021.4
20260830153119 78 255 1.0 5.0 0.00 0.00 0.00 77 1021.5
20260830152618 78 237 3.0 4.0 0.00 0.00 0.00 77 1021.7
20260830152117 78 268 4.0 5.0 0.00 0.00 0.00 75 1021.4
20260830151612 78 269 0.0 4.0 0.00 0.00 0.00 77 1021.5
20260830151107 77 259 3.0 3.0 0.00 0.00 0.00 79 1021.3
20260830150606 78 250 2.0 3.0 0.00 0.00 0.00 80 1021.3
20260830150101 77 275 2.0 4.0 0.00 0.00 0.00 79 1021.4
20260830145555 77 246 3.0 5.0 0.00 0.00 0.00 79 1021.3
20260830145050 76 275 2.0 4.0 0.00 0.00 0.00 81 1021.2
20260830144546 75 237 2.0 3.0 0.00 0.00 0.00 82 1021.0
20260830144042 75 195 1.0 3.0 0.00 0.00 0.00 83 1021.0
20260830143538 74 283 0.0 3.0 0.00 0.00 0.00 84 1020.9
20260830143035 75 293 0.0 2.0 0.00 0.00 0.00 84 1021.0
20260830142531 75 236 0.0 3.0 0.00 0.00 0.00 83 1021.0
20260830142026 75 276 0.0 3.0 0.00 0.00 0.00 83 1020.9
20260830141516 74 252 0.0 3.0 0.00 0.00 0.00 82 1020.7
20260830141016 73 89 0.0 3.0 0.00 0.00 0.00 83 1020.7
20260830140516 72 245 2.0 3.0 0.00 0.00 0.00 84 1020.9
20260830140012 72 250 2.0 3.0 0.00 0.00 0.00 84 1020.9
20260830135506 71 262 2.0 3.0 0.00 0.00 0.00 85 1020.8
20260830135001 70 249 2.0 3.0 0.00 0.00 0.00 87 1020.6
20260830134457 68 233 0.0 2.0 0.00 0.00 0.00 87 1020.7
20260830133952 70 227 1.0 2.0 0.00 0.00 0.00 86 1020.8
20260830133448 70 210 1.0 4.0 0.00 0.00 0.00 86 1020.8
20260830132943 70 235 2.0 5.0 0.00 0.00 0.00 86 1020.7
20260830132439 70 236 2.0 3.0 0.00 0.00 0.00 85 1020.6
20260830131938 70 224 2.0 4.0 0.00 0.00 0.00 85 1020.7
20260830131438 70 266 0.0 3.0 0.00 0.00 0.00 85 1020.6
20260830130932 70 237 3.0 4.0 0.00 0.00 0.00 84 1020.7
20260830130428 70 239 0.0 4.0 0.00 0.00 0.00 84 1020.8
20260830125927 70 293 0.0 3.0 0.00 0.00 0.00 84 1020.7
20260830125423 70 258 1.0 2.0 0.00 0.00 0.00 84 1020.7
20260830124920 71 263 2.0 2.0 0.00 0.00 0.00 82 1020.9
20260830124416 70 224 0.0 0.0 0.00 0.00 0.00 86 1020.8
20260830123912 69 89 0.0 2.0 0.00 0.00 0.00 89 1020.7
20260830123409 67 142 0.0 2.0 0.00 0.00 0.00 93 1020.8
20260830122906 65 142 0.0 0.0 0.00 0.00 0.00 95 1020.7
20260830122401 65 142 0.0 0.0 0.00 0.00 0.00 95 1020.9
20260830121856 65 224 0.0 1.0 0.00 0.00 0.00 95 1020.9
20260830121356 65 50 0.0 0.0 0.00 0.00 0.00 95 1020.8
20260830120851 65 212 0.0 0.0 0.00 0.00 0.00 95 1020.8
20260830120346 64 212 0.0 0.0 0.00 0.00 0.00 95 1020.8
20260830115842 64 212 0.0 0.0 0.00 0.00 0.00 95 1020.9
20260830115339 64 212 0.0 1.0 0.00 0.00 0.00 95 1020.8
20260830114834 64 129 0.0 1.0 0.00 0.00 0.00 95 1020.7
20260830114330 64 25 0.0 0.0 0.00 0.00 0.00 95 1020.8
20260830113825 64 25 0.0 0.0 0.00 0.00 0.00 95 1020.9
20260830113320 64 154 0.0 0.0 0.00 0.00 0.00 95 1020.7
20260830112816 64 119 0.0 1.0 0.00 0.00 0.00 95 1020.8
20260830112311 64 147 0.0 1.0 0.00 0.00 0.00 95 1020.5
20260830111807 64 129 0.0 1.0 0.00 0.00 0.00 95 1020.6
20260830111303 64 129 0.0 1.0 0.00 0.00 0.00 95 1020.8
20260830110802 64 142 0.0 1.0 0.00 0.00 0.00 95 1020.6
20260830110259 64 67 0.0 2.0 0.00 0.00 0.00 95 1020.5
20260830105757 64 66 0.0 1.0 0.00 0.00 0.00 95 1020.5
20260830105253 64 117 0.0 1.0 0.00 0.00 0.00 94 1020.6
20260830104744 64 142 0.0 0.0 0.00 0.00 0.00 94 1020.7
20260830104241 64 95 1.0 1.0 0.00 0.00 0.00 94 1020.8
20260830103740 64 80 1.0 2.0 0.00 0.00 0.00 94 1020.8
20260830103235 64 147 0.0 1.0 0.00 0.00 0.00 94 1020.7
20260830102733 64 89 0.0 1.0 0.00 0.00 0.00 94 1020.8
20260830102230 64 50 0.0 1.0 0.00 0.00 0.00 94 1020.6
20260830101726 63 28 0.0 2.0 0.00 0.00 0.00 94 1020.4
20260830101221 63 110 0.0 2.0 0.00 0.00 0.00 93 1020.6
20260830100714 63 103 0.0 2.0 0.00 0.00 0.00 93 1020.7
20260830100209 64 120 1.0 2.0 0.00 0.00 0.00 93 1020.6
20260830095708 64 121 0.0 2.0 0.00 0.00 0.00 93 1020.6
20260830095204 64 104 1.0 2.0 0.00 0.00 0.00 92 1020.7
20260830094659 64 89 0.0 2.0 0.00 0.00 0.00 92 1020.8
20260830094154 64 29 0.0 1.0 0.00 0.00 0.00 92 1020.6
20260830093650 64 63 1.0 2.0 0.00 0.00 0.00 92 1020.6
20260830093146 64 48 0.0 2.0 0.00 0.00 0.00 92 1020.5
20260830092640 63 117 0.0 2.0 0.00 0.00 0.00 92 1020.6
20260830092138 63 89 0.0 2.0 0.00 0.00 0.00 92 1020.8
20260830091638 64 89 0.0 1.0 0.00 0.00 0.00 92 1020.7
20260830091137 64 66 0.0 1.0 0.00 0.00 0.00 92 1020.8
20260830090632 63 122 1.0 1.0 0.00 0.00 0.00 92 1020.6
20260830090127 63 103 0.0 0.0 0.00 0.00 0.00 92 1020.6
20260830085626 63 114 0.0 2.0 0.00 0.00 0.00 91 1020.6
20260830085123 63 66 0.0 2.0 0.00 0.00 0.00 91 1020.7
20260830084618 64 124 1.0 1.0 0.00 0.00 0.00 91 1020.7
20260830084113 63 125 0.0 2.0 0.00 0.00 0.00 91 1020.8
20260830083609 63 65 0.0 2.0 0.00 0.00 0.00 90 1020.8
20260830083108 63 35 0.0 2.0 0.00 0.00 0.00 90 1020.7
20260830082603 63 78 0.0 1.0 0.00 0.00 0.00 89 1021.0
20260830082059 64 89 0.0 1.0 0.00 0.00 0.00 89 1020.8
20260830081555 63 35 1.0 2.0 0.00 0.00 0.00 88 1020.9
20260830081054 63 62 0.0 2.0 0.00 0.00 0.00 88 1021.0
20260830080549 63 63 0.0 1.0 0.00 0.00 0.00 89 1021.0
20260830080044 63 32 0.0 1.0 0.00 0.00 0.00 89 1021.0
20260830075539 63 41 0.0 1.0 0.00 0.00 0.00 89 1021.0
20260830075034 63 25 0.0 1.0 0.00 0.00 0.00 89 1021.1
20260830074530 63 81 0.0 1.0 0.00 0.00 0.00 89 1021.1
20260830074025 63 6 0.0 1.0 0.00 0.00 0.00 89 1021.1
20260830073522 63 62 0.0 1.0 0.00 0.00 0.00 89 1021.0
20260830073016 63 20 0.0 1.0 0.00 0.00 0.00 89 1020.9
20260830072512 63 32 0.0 0.0 0.00 0.00 0.00 88 1021.0
20260830072011 63 50 0.0 0.0 0.00 0.00 0.00 88 1021.1
20260830071506 63 32 0.0 1.0 0.00 0.00 0.00 88 1021.0
20260830071004 63 89 0.0 1.0 0.00 0.00 0.00 87 1021.0
20260830070459 63 37 0.0 1.0 0.00 0.00 0.00 87 1020.9
20260830065959 63 25 0.0 1.0 0.00 0.00 0.00 88 1021.0
20260830065453 62 29 0.0 0.0 0.00 0.00 0.00 88 1020.9
20260830064951 63 29 0.0 1.0 0.00 0.00 0.00 89 1021.0
20260830064447 63 32 0.0 0.0 0.00 0.00 0.00 88 1021.1
20260830063947 63 32 0.0 1.0 0.00 0.00 0.00 88 1020.9
20260830063447 64 75 0.0 1.0 0.00 0.00 0.00 86 1020.9
20260830062946 63 142 0.0 1.0 0.00 0.00 0.00 86 1021.0
20260830062445 63 224 0.0 0.0 0.00 0.00 0.00 86 1020.9
20260830061940 63 224 0.0 1.0 0.00 0.00 0.00 85 1021.0
20260830061435 63 142 0.0 1.0 0.00 0.00 0.00 86 1020.9
20260830060932 63 69 0.0 0.0 0.00 0.00 0.00 86 1021.1
20260830060428 63 69 0.0 0.0 0.00 0.00 0.00 86 1021.1
20260830055923 63 75 0.0 1.0 0.00 0.00 0.00 85 1020.9
20260830055419 63 104 0.0 1.0 0.00 0.00 0.00 85 1021.3
20260830054914 63 269 0.0 1.0 0.00 0.00 0.00 86 1021.1
20260830054410 63 25 0.0 0.0 0.00 0.00 0.00 84 1021.0
20260830053905 63 79 0.0 1.0 0.00 0.00 0.00 84 1021.1
20260830053401 64 113 0.0 1.0 0.00 0.00 0.00 82 1021.1
20260830052900 64 124 0.0 1.0 0.00 0.00 0.00 82 1021.0